Flag Weather past 2 weeks in Sioux Falls, South Dakota, U.S.A.

Now
54 °F

Partly sunny.


Feels Like: 49 °F
Forecast: 32 / 54 °F
Wind: 18 mph from Northwest

Location: Foss Field

Current Time: Oct 30, 2014 at 1:37:39 PM

Latest Report: Oct 30, 2014 at 12:56 PM


Visibility: 10 mi

Pressure: 30.13 "Hg

Humidity: 64%

Dew point: 42 °F

Location of Sioux FallsLocation

Historic Weather in Sioux Falls — Graph

°F

Sioux Falls temperature yesterday

Maximum temperature yesterday: 50 °F (at 3:56 PM)
Minimum temperature yesterday: 32 °F (at 7:56 AM)
Average temperature yesterday: 43 °F

Past Weeks' High & Low Weather Summary

 TemperatureHumidityPressure
High75 °F (Oct 24, 2:56 PM)100% (Oct 23, 1:56 AM)30.29 "Hg (Oct 23, 1:56 AM)
Low32 °F (Oct 29, 7:56 AM)25% (Oct 25, 2:56 PM)29.54 "Hg (Oct 27, 12:56 AM)
Average52 °F65%29.97 "Hg
* Reported Oct 15 11:56 AM — Oct 30 11:56 AM, Sioux Falls, Weather by CustomWeather, © 2014

Note: Actual official high and low records may vary slightly from our data, if they occured in-between our weather recording intervals... More about our weather records

Advertising

Sioux Falls weather history for previous 24 hours

 ConditionsComfort  
Time TempWeatherWind HumidityBarometerVisibility
11:56 AM
Oct 30
53 °FPassing clouds.16 mph59%30.11 "Hg10 mi
10:56 AM52 °FPassing clouds.16 mph59%30.10 "Hg10 mi
9:56 AM49 °FPassing clouds.12 mph61%30.08 "Hg10 mi
8:56 AM44 °FPassing clouds.12 mph68%30.06 "Hg10 mi
7:56 AM42 °FPassing clouds.12 mph73%30.03 "Hg10 mi
6:56 AM43 °FPassing clouds.10 mph71%30.01 "Hg10 mi
5:56 AM40 °FPassing clouds.5 mph73%30.00 "Hg10 mi
4:56 AM42 °FPassing clouds.3 mph71%29.98 "Hg10 mi
3:56 AM44 °FClear.6 mph63%29.98 "Hg10 mi
2:56 AM46 °FPassing clouds.6 mph61%29.99 "Hg10 mi
1:56 AM47 °FOvercast.10 mph59%29.99 "Hg10 mi
12:56 AM47 °FOvercast.10 mph56%30.01 "Hg10 mi
11:56 PM
Oct 29
47 °FMostly cloudy.9 mph56%30.01 "Hg10 mi
10:56 PM48 °FOvercast.7 mph54%30.05 "Hg10 mi
9:56 PM47 °FMostly cloudy.7 mph54%30.05 "Hg10 mi
8:56 PM47 °FOvercast.9 mph54%30.06 "Hg10 mi
7:56 PM46 °FPassing clouds.5 mph56%30.09 "Hg10 mi
6:56 PM45 °FBroken clouds.7 mph56%30.09 "Hg10 mi
5:56 PM47 °FPartly sunny.7 mph52%30.07 "Hg10 mi
4:56 PM50 °FPassing clouds.9 mph48%30.08 "Hg10 mi
3:56 PM50 °FPassing clouds.10 mph48%30.09 "Hg10 mi
2:56 PM49 °FPassing clouds.7 mph52%30.12 "Hg10 mi
1:56 PM48 °FPassing clouds.3 mph54%30.15 "Hg10 mi
Weather by CustomWeather, © 2014

See weather overviewHow to use our weather pages